Weather History for KUKI - October, 2010

Change the Weather History Date:

Saturday, October 16, 2010

  Actual Average Record
Temperature  
Mean Temperature 61 °F 60 °F  
Max Temperature 80 °F 77 °F 97 °F (1933)
Min Temperature 42 °F 44 °F 33 °F (1938)
Degree Days  
Heating Degree Days 4 5  
Month to date heating degree days 21 57  
Since 1 July heating degree days 51 90  
Cooling Degree Days 0 0  
Month to date cooling degree days 35 19  
Year to date cooling degree days 783 832  
Growing Degree Days 10 (Base 50)    
Moisture  
Dew Point 36 °F    
Average Humidity 50    
Maximum Humidity 83    
Minimum Humidity 17    
Precipitation  
Precipitation 0.00 in 0.07 in 2.01 in (1947)
Month to date precipitation 0.02 0.50  
Year to date precipitation 32.60 24.47  
Since 1 July precipitation 0.12 1.09  
Snow  
Snow 0.00 in - - ()
Month to date snowfall 0.0  
Since 1 July snowfall 0.0  
Since 1 September snowfall 0.0  
Snow Depth 0.00 in    
Sea Level Pressure  
Sea Level Pressure 30.01 in    
Wind  
Wind Speed 1 mph (NNE)    
Max Wind Speed 9 mph    
Max Gust Speed -    
Visibility 10 miles    
Events      
T = Trace of Precipitation, MM = Missing Value Source: NWS Daily Summary

Daily Weather History Graph

Daily Weather History Graph

Search for Another Location

Airport or City:

Trip Planner

Search our weather history database for the weather conditions in past years. The results will help you decide how hot, cold, wet, or windy it might be!

Date:

Astronomy

Oct. 16, 2010 Rise Set
Actual Time 7:23 AM PDT 6:32 PM PDT
Civil Twilight 6:56 AM PDT 6:59 PM PDT
Nautical Twilight 6:25 AM PDT 7:30 PM PDT
Astronomical Twilight 5:54 AM PDT 8:01 PM PDT
Moon 3:25 PM PDT (10/16) 1:24 AM PDT (10/16)
Length of Visible Light 12h 02m
Length of Day
11h 08m
Waxing Gibbous, 68% of the Moon is Illuminated
Oct 16
Waxing Gibbous
Oct 22
Full
Oct 30
Last Quarter
Nov 5
New
Nov 13
First Quarter

Hourly Weather History & Observations

Time (PDT) Temp. Dew Point Humidity Pressure Visibility Wind Dir Wind Speed Gust Speed Precip Events Conditions
12:56 AM 50.0 °F 41.0 °F 71% 30.01 in 10.0 mi Calm Calm - N/A   Clear
1:56 AM 50.0 °F 41.0 °F 71% 30.01 in 10.0 mi Calm Calm - N/A   Clear
2:56 AM 51.1 °F 37.0 °F 59% 30.01 in 10.0 mi Calm Calm - N/A   Clear
3:56 AM 48.9 °F 39.0 °F 69% 30.01 in 10.0 mi Calm Calm - N/A   Clear
4:56 AM 45.0 °F 39.0 °F 80% 30.01 in 10.0 mi Calm Calm - N/A   Clear
5:56 AM 44.1 °F 37.9 °F 79% 30.02 in 10.0 mi Calm Calm - N/A   Clear
6:56 AM 42.1 °F 37.0 °F 82% 30.03 in 10.0 mi Calm Calm - N/A   Clear
7:56 AM 42.1 °F 37.0 °F 82% 30.04 in 10.0 mi Calm Calm - N/A   Clear
8:56 AM 46.9 °F 39.0 °F 74% 30.06 in 10.0 mi Calm Calm - N/A   Clear
9:56 AM 55.0 °F 37.9 °F 53% 30.05 in 10.0 mi Calm Calm - N/A   Clear
10:56 AM 61.0 °F 37.0 °F 41% 30.05 in 10.0 mi Calm Calm - N/A   Clear
11:56 AM 69.1 °F 37.9 °F 32% 30.02 in 10.0 mi Calm Calm - N/A   Clear
12:56 PM 73.0 °F 34.0 °F 24% 30.00 in 10.0 mi Calm Calm - N/A   Clear
1:56 PM 75.9 °F 28.9 °F 18% 29.98 in 10.0 mi Calm Calm - N/A   Clear
2:56 PM 78.8 °F 30.2 °F 17% 29.97 in 10.0 mi East 3.5 mph - N/A   Clear
3:56 PM 78.1 °F 36.0 °F 22% 29.96 in 10.0 mi SSE 9.2 mph - N/A   Clear
4:56 PM 77.0 °F 33.1 °F 20% 29.96 in 10.0 mi NNW 8.1 mph - N/A   Clear
5:56 PM 71.1 °F 35.1 °F 27% 29.97 in 10.0 mi NNE 6.9 mph - N/A   Clear
6:56 PM 66.0 °F 28.9 °F 25% 29.98 in 10.0 mi West 4.6 mph - N/A   Clear
7:56 PM 62.1 °F 33.1 °F 34% 29.99 in 10.0 mi Calm Calm - N/A   Clear
8:56 PM 57.9 °F 35.1 °F 42% 29.99 in 10.0 mi Calm Calm - N/A   Clear
9:56 PM 55.0 °F 35.1 °F 47% 30.01 in 10.0 mi Calm Calm - N/A   Clear
10:56 PM 50.0 °F 35.1 °F 57% 30.01 in 10.0 mi Calm Calm - N/A   Clear
11:56 PM 50.0 °F 36.0 °F 59% 30.01 in 10.0 mi Calm Calm - N/A   Clear